Location: South Tamworth Observatory
(43.8246°N, 71.3026°W)
Time: 03:44:48
(UTC-04:00)

Amateur Radio Satellites - All Passes

Search period start: 31 October 2014 03:14
Search period end: 01 November 2014 03:14
Location: South Tamworth Observatory, 43.8246°N, 71.3026°W

Satellite Date Start Highest point End Downlink Frequencies (MHz)
Time Altitude Azimuth
AO-27 31 Oct 03:37:56 03:43:04 57° 289° (WNW) 03:48:09 436.795 MHz FM
JAS-1B 31 Oct 03:45:30 03:51:50 39° 294° (WNW) 03:59:15 435.800 - 435.900 CW/SSB
Gurwin Techsat 1B 31 Oct 03:50:12 03:55:32 80° 286° (WNW) 04:00:51 435.225 FM
Oscar 16 31 Oct 03:51:06 03:54:41 20° 299° (WNW) 03:58:17 437.025 USB, Beacon 2401.1428
TMSAT-1 31 Oct 03:56:54 04:02:15 89° 104° (ESE) 04:07:33 436.925 FM
Sapphire 31 Oct 04:08:50 04:13:23 27° 315° (NW) 04:17:58 437.095 MHz 1200 baud AX-25 AFSK
OPAL 31 Oct 04:15:57 04:20:30 34° 65° (ENE) 04:25:01 ?
Uribyol 2 31 Oct 04:22:46 04:26:49 23° 297° (WNW) 04:30:51 436.500 FM
AO-Echo 31 Oct 04:30:30 04:33:50 17° 300° (WNW) 04:37:10 ?
ITAMSAT 1 31 Oct 04:30:43 04:34:37 22° 298° (WNW) 04:38:29 435.822 SSB
PCSat 31 Oct 04:31:42 04:35:31 19° 321° (NW) 04:39:20 145.825 MHz
Uosat F 31 Oct 04:41:39 04:46:15 34° 97° (E) 04:50:48 435.120 FM
JAS-2 31 Oct 04:55:35 05:01:33 23° 88° (E) 05:07:21 435.800 - 435.900 CW/SSB, 435.910 FM
AO-7 31 Oct 04:56:19 05:04:33 60° 103° (ESE) 05:12:45 29.400 - 29.500 MHz
Saudisat 1A 31 Oct 05:08:26 05:11:40 20° 112° (ESE) 05:14:55 436.775 MHz
RS-15 31 Oct 05:14:53 05:25:50 58° 46° (NE) 05:37:12 29.354 - 29.394 USB, Beacon 29.352 USB
Gurwin Techsat 1B 31 Oct 05:32:32 05:34:38 12° 304° (NW) 05:36:45 435.225 FM
TMSAT-1 31 Oct 05:38:43 05:41:25 14° 303° (WNW) 05:44:06 436.925 FM
OPAL 31 Oct 05:54:48 05:59:21 32° 261° (W) 06:03:53 ?
Hamsat 31 Oct 06:11:02 06:15:02 40° 98° (E) 06:19:02 145.90 MHz
STRAND 1 31 Oct 06:11:08 06:16:01 46° 69° (ENE) 06:20:57 ?
Uosat F 31 Oct 06:20:33 06:24:57 31° 294° (WNW) 06:29:20 435.120 FM
JAS-2 31 Oct 06:39:24 06:47:17 80° 287° (WNW) 06:54:57 435.800 - 435.900 CW/SSB, 435.910 FM
MaSat-1 31 Oct 06:40:23 06:41:20 12° 50° (NE) 06:42:17 437.345 MHz
Saudisat 1A 31 Oct 06:46:40 06:50:54 48° 310° (NW) 06:55:12 436.775 MHz
AO-7 31 Oct 06:49:39 06:56:56 36° 303° (WNW) 07:04:14 29.400 - 29.500 MHz
SO-67 31 Oct 07:18:25 07:21:24 27° 96° (E) 07:24:21 435.3500 MHz FM
RS-15 31 Oct 07:27:36 07:38:03 48° 249° (WSW) 07:48:57 29.354 - 29.394 USB, Beacon 29.352 USB
Hamsat 31 Oct 07:47:41 07:50:42 19° 294° (WNW) 07:53:44 145.90 MHz
STRAND 1 31 Oct 07:51:23 07:55:25 23° 267° (W) 07:59:30 ?
MaSat-1 31 Oct 08:14:50 08:16:47 21° 251° (WSW) 08:18:39 437.345 MHz
JAS-2 31 Oct 08:25:54 08:31:08 20° 306° (NW) 08:36:20 435.800 - 435.900 CW/SSB, 435.910 FM
Saudisat 1A 31 Oct 08:30:37 08:31:33 11° 331° (NNW) 08:32:29 436.775 MHz
SO-67 31 Oct 08:51:44 08:54:12 18° 292° (WNW) 08:56:38 435.3500 MHz FM
Sapphire 31 Oct 09:28:58 09:31:44 14° 34° (NNE) 09:34:29 437.095 MHz 1200 baud AX-25 AFSK
HO-68 31 Oct 09:34:08 09:41:12 56° 102° (ESE) 09:48:13 435.675 MHz FM
PCSat 31 Oct 09:50:06 09:53:56 19° 40° (NE) 09:57:46 145.825 MHz
UKube-1 31 Oct 09:52:11 09:55:57 28° 96° (E) 09:59:41 145.840 MHz, 145.915 MHz
ZACube-1 31 Oct 10:01:43 10:04:03 15° 90° (E) 10:06:21 437.345 MHz
Oscar 11 31 Oct 10:26:59 10:31:17 66° 101° (ESE) 10:35:34 145.825 FM, Beacon 2401.500 USB
SO-50 31 Oct 10:34:45 10:38:26 25° 113° (ESE) 10:42:12 436.795 FM
ISS 31 Oct 10:41:33 10:44:52 74° 146° (SE) 10:48:12 145.800 FM
FUNcube-1 31 Oct 10:43:22 10:47:21 40° 98° (E) 10:51:16 145.950 - 145.970 MHz USB
KITSAT 1 31 Oct 10:43:45 10:51:33 56° 114° (ESE) 10:59:24 435.175 FM
Sapphire 31 Oct 11:10:56 11:16:20 60° 55° (NE) 11:21:41 437.095 MHz 1200 baud AX-25 AFSK
HO-68 31 Oct 11:22:23 11:28:33 32° 301° (WNW) 11:34:42 435.675 MHz FM
UKube-1 31 Oct 11:28:19 11:32:06 29° 293° (WNW) 11:35:51 145.840 MHz, 145.915 MHz
PCSat 31 Oct 11:32:38 11:38:06 88° 240° (WSW) 11:43:31 145.825 MHz
ZACube-1 31 Oct 11:36:42 11:40:46 50° 288° (WNW) 11:44:47 437.345 MHz
Oscar 16 31 Oct 11:52:51 11:55:30 14° 58° (ENE) 11:58:09 437.025 USB, Beacon 2401.1428
Oscar 11 31 Oct 12:04:51 12:06:56 13° 299° (WNW) 12:09:01 145.825 FM, Beacon 2401.500 USB
SO-50 31 Oct 12:14:27 12:18:46 42° 312° (NW) 12:23:13 436.795 FM
ISS 31 Oct 12:18:54 12:21:49 27° 345° (NNW) 12:24:45 145.800 FM
FUNcube-1 31 Oct 12:20:30 12:23:27 19° 295° (WNW) 12:26:21 145.950 - 145.970 MHz USB
Uribyol 2 31 Oct 12:26:02 12:28:18 13° 56° (ENE) 12:30:33 436.500 FM
AO-Echo 31 Oct 12:28:33 12:31:26 15° 59° (ENE) 12:34:22 ?
ITAMSAT 1 31 Oct 12:33:30 12:36:09 14° 57° (ENE) 12:38:49 435.822 SSB
KITSAT 1 31 Oct 12:39:44 12:47:15 41° 316° (NW) 12:54:49 435.175 FM
Oscar 19 31 Oct 12:42:32 12:47:12 37° 68° (ENE) 12:51:53 437.125 CW, 437.150 USB
JAS-1B 31 Oct 12:43:27 12:48:37 37° 65° (ENE) 12:53:51 435.800 - 435.900 CW/SSB
Sapphire 31 Oct 12:55:17 12:59:18 21° 253° (WSW) 13:03:17 437.095 MHz 1200 baud AX-25 AFSK
UOSAT-12 31 Oct 12:58:22 13:02:56 63° 121° (ESE) 13:07:37 437.025 FM, 437.400 FM
PCSat 31 Oct 13:18:29 13:20:40 13° 258° (WSW) 13:22:51 145.825 MHz
AO-27 31 Oct 13:18:38 13:23:17 34° 66° (ENE) 13:27:59 436.795 MHz FM
Oscar 16 31 Oct 13:29:00 13:34:09 85° 256° (WSW) 13:39:20 437.025 USB, Beacon 2401.1428
Saudisat 1A 31 Oct 13:32:45 13:36:36 28° 44° (NE) 13:40:26 436.775 MHz
Gurwin Techsat 1B 31 Oct 13:34:06 13:38:25 26° 64° (ENE) 13:42:45 435.225 FM
TMSAT-1 31 Oct 13:40:52 13:44:54 23° 62° (ENE) 13:48:56 436.925 FM
ISS 31 Oct 13:56:36 13:59:15 21° 5° (N) 14:01:53 145.800 FM
SO-50 31 Oct 13:59:43 14:00:36 10° 334° (NNW) 14:01:29 436.795 FM
Uribyol 2 31 Oct 14:01:43 14:06:57 84° 75° (ENE) 14:12:13 436.500 FM
AO-Echo 31 Oct 14:04:31 14:09:30 78° 257° (WSW) 14:14:42 ?
AO-7 31 Oct 14:07:12 14:13:07 23° 49° (NE) 14:19:03 29.400 - 29.500 MHz
ITAMSAT 1 31 Oct 14:09:41 14:14:54 88° 255° (WSW) 14:20:11 435.822 SSB
Oscar 19 31 Oct 14:22:09 14:26:35 29° 265° (W) 14:31:03 437.125 CW, 437.150 USB
JAS-1B 31 Oct 14:34:28 14:39:27 30° 265° (W) 14:44:26 435.800 - 435.900 CW/SSB
UOSAT-12 31 Oct 14:39:49 14:43:30 22° 320° (NW) 14:47:13 437.025 FM, 437.400 FM
KITSAT 1 31 Oct 14:40:21 14:45:15 17° 343° (NNW) 14:50:10 435.175 FM
AO-27 31 Oct 14:58:07 15:02:46 33° 264° (W) 15:07:28 436.795 MHz FM
Saudisat 1A 31 Oct 15:12:08 15:16:16 39° 243° (WSW) 15:20:22 436.775 MHz
JAS-2 31 Oct 15:12:58 15:15:13 12° 47° (NE) 15:17:32 435.800 - 435.900 CW/SSB, 435.910 FM
Gurwin Techsat 1B 31 Oct 15:13:03 15:18:07 45° 261° (W) 15:23:14 435.225 FM
Oscar 16 31 Oct 15:13:39 15:14:16 10° 273° (W) 15:14:52 437.025 USB, Beacon 2401.1428
TMSAT-1 31 Oct 15:19:16 15:24:27 53° 260° (W) 15:29:39 436.925 FM
ISS 31 Oct 15:33:17 15:36:31 45° 25° (NNE) 15:39:44 145.800 FM
Uribyol 2 31 Oct 15:44:55 15:47:05 13° 272° (W) 15:49:16 436.500 FM
ITAMSAT 1 31 Oct 15:53:42 15:55:08 11° 273° (W) 15:56:35 435.822 SSB
Uosat F 31 Oct 15:56:04 16:00:58 55° 71° (ENE) 16:05:54 435.120 FM
AO-7 31 Oct 15:56:32 16:04:48 86° 70° (ENE) 16:13:09 29.400 - 29.500 MHz
KITSAT 1 31 Oct 16:39:52 16:44:35 16° 14° (NNE) 16:49:18 435.175 FM
JAS-2 31 Oct 16:52:20 16:58:31 55° 68° (ENE) 17:05:31 435.800 - 435.900 CW/SSB, 435.910 FM
Hamsat 31 Oct 17:05:41 17:09:27 34° 70° (ENE) 17:13:14 145.90 MHz
ISS 31 Oct 17:10:10 17:13:06 28° 222° (SW) 17:16:01 145.800 FM
SO-50 31 Oct 17:26:20 17:26:43 10° 25° (NNE) 17:27:07 436.795 FM
Uosat F 31 Oct 17:36:35 17:40:05 19° 268° (W) 17:43:37 435.120 FM
AO-7 31 Oct 17:52:44 17:58:33 21° 269° (W) 18:04:26 29.400 - 29.500 MHz
SO-67 31 Oct 17:53:45 17:55:12 12° 65° (ENE) 17:56:39 435.3500 MHz FM
OPAL 31 Oct 18:02:36 18:07:29 57° 103° (ESE) 18:12:21 ?
STRAND 1 31 Oct 18:22:01 18:24:35 14° 89° (E) 18:27:08 ?
HO-68 31 Oct 18:23:22 18:24:42 11° 44° (NE) 18:26:02 435.675 MHz FM
KITSAT 1 31 Oct 18:35:20 18:42:45 38° 42° (NE) 18:50:07 435.175 FM
JAS-2 31 Oct 18:38:37 18:43:59 28° 270° (W) 18:49:57 435.800 - 435.900 CW/SSB, 435.910 FM
Hamsat 31 Oct 18:42:16 18:45:29 21° 267° (W) 18:48:42 145.90 MHz
SO-50 31 Oct 19:04:07 19:08:39 38° 47° (NE) 19:13:12 436.795 FM
SO-67 31 Oct 19:24:30 19:27:47 43° 261° (W) 19:31:06 435.3500 MHz FM
AO-40 31 Oct 19:31:39 22:20:56 23° 121° (ESE) 23:38:28 Beacon 2401.320
OPAL 31 Oct 19:42:27 19:45:58 20° 301° (WNW) 19:49:27 ?
RS-15 31 Oct 19:42:54 19:51:24 27° 103° (ESE) 19:59:48 29.354 - 29.394 USB, Beacon 29.352 USB
UOSAT-12 31 Oct 19:47:41 19:50:35 16° 34° (NE) 19:53:28 437.025 FM, 437.400 FM
STRAND 1 31 Oct 19:59:11 20:04:21 76° 286° (WNW) 20:09:28 ?
HO-68 31 Oct 20:03:54 20:10:42 49° 65° (ENE) 20:17:32 435.675 MHz FM
KITSAT 1 31 Oct 20:30:40 20:38:37 63° 244° (WSW) 20:46:31 435.175 FM
SO-50 31 Oct 20:44:50 20:49:09 32° 245° (WSW) 20:53:28 436.795 FM
UKube-1 31 Oct 20:48:54 20:52:41 29° 67° (ENE) 20:56:28 145.840 MHz, 145.915 MHz
ZACube-1 31 Oct 20:59:31 21:02:21 17° 63° (ENE) 21:05:09 437.345 MHz
Oscar 11 31 Oct 21:23:05 21:27:20 60° 74° (ENE) 21:31:36 145.825 FM, Beacon 2401.500 USB
UOSAT-12 31 Oct 21:26:47 21:31:32 78° 55° (NE) 21:36:11 437.025 FM, 437.400 FM
FUNcube-1 31 Oct 21:40:39 21:44:53 41° 71° (ENE) 21:49:02 145.950 - 145.970 MHz USB
STRAND 1 31 Oct 21:41:06 21:42:39 11° 304° (NW) 21:44:13 ?
MaSat-1 31 Oct 21:49:49 21:53:30 42° 113° (ESE) 21:56:50 437.345 MHz
RS-15 31 Oct 21:51:24 22:02:24 84° 305° (NW) 22:13:26 29.354 - 29.394 USB, Beacon 29.352 USB
HO-68 31 Oct 21:52:07 21:58:33 35° 264° (W) 22:05:03 435.675 MHz FM
UKube-1 31 Oct 22:25:06 22:28:49 27° 264° (W) 22:32:35 145.840 MHz, 145.915 MHz
KITSAT 1 31 Oct 22:30:16 22:32:22 11° 263° (W) 22:34:28 435.175 FM
ZACube-1 31 Oct 22:33:53 22:38:20 55° 260° (W) 22:42:43 437.345 MHz
Oscar 11 31 Oct 23:01:54 23:03:54 13° 270° (W) 23:05:55 145.825 FM, Beacon 2401.500 USB
UOSAT-12 31 Oct 23:08:45 23:11:02 14° 252° (WSW) 23:13:17 437.025 FM, 437.400 FM
FUNcube-1 31 Oct 23:18:01 23:21:23 21° 267° (W) 23:24:44 145.950 - 145.970 MHz USB
MaSat-1 31 Oct 23:26:36 23:28:59 16° 307° (NW) 23:31:14 437.345 MHz
RS-15 01 Nov 00:07:02 00:16:34 33° 333° (NNW) 00:26:15 29.354 - 29.394 USB, Beacon 29.352 USB
JAS-1B 01 Nov 00:27:47 00:28:53 10° 86° (E) 00:30:01 435.800 - 435.900 CW/SSB
Oscar 19 01 Nov 00:55:16 00:56:29 11° 87° (E) 00:57:42 437.125 CW, 437.150 USB
Oscar 16 01 Nov 01:39:43 01:44:14 30° 96° (E) 01:48:43 437.025 USB, Beacon 2401.1428
Sapphire 01 Nov 01:54:14 01:59:15 41° 112° (ESE) 02:04:19 437.095 MHz 1200 baud AX-25 AFSK
AO-Echo 01 Nov 02:10:38 02:15:25 33° 95° (E) 02:20:08 ?
JAS-1B 01 Nov 02:13:21 02:20:26 62° 102° (ESE) 02:28:53 435.800 - 435.900 CW/SSB
Uribyol 2 01 Nov 02:13:42 02:18:05 27° 95° (E) 02:22:25 436.500 FM
PCSat 01 Nov 02:15:26 02:20:47 66° 117° (ESE) 02:26:10 145.825 MHz
ITAMSAT 1 01 Nov 02:21:40 02:26:14 30° 95° (E) 02:30:46 435.822 SSB
RS-15 01 Nov 02:24:49 02:33:29 25° 8° (N) 02:42:20 29.354 - 29.394 USB, Beacon 29.352 USB
Oscar 19 01 Nov 02:31:23 02:36:32 89° 106° (ESE) 02:41:40 437.125 CW, 437.150 USB
